Weather in Feodosia

Russia / Republic of Crimea     45°01′55″N   35°22′52″E
temp.,
°C
wind,
m/s
gust,
m/s
humid.,
%
clouds,
%
prec.,
mm/h
press.,
hPa
HPBL,
m
3 march, wed
wed300:00+5nw557251 0.0 1024297
03:00+5sw497037 0.0 1022672
06:00+5nw91284100 0.3 1021799
09:00+5nw91175100 0.3 10231191
12:00+5nnw997385 0.1 1025994
15:00+6nnw8106242 0.1 10261206
18:00+7nnw69580 0.0 10261377
21:00+7nw68590 0.0 1028730
4 march, thu
thu400:00+6wnw44650 0.0 1028280
03:00+5wnw33650 0.0 1028206
06:00+5sw12620 0.0 1026278
09:00+7sw46640 0.0 1026939
12:00+7ssw786843 0.0 1025965
15:00+8ssw996821 0.0 1023795
18:00+7sw1011740 0.0 1021746
21:00+7sw1012760 0.0 1021771
5 march, fri
fri500:00+7ssw1113771 0.0 1020755
03:00+7ssw1113770 0.0 1019684
06:00+7ssw1012780 0.0 1018589
09:00+7ssw1012780 0.0 1018593
12:00+8ssw1113790 0.0 1017609
15:00+8ssw1013770 0.0 1015533
18:00+8ssw1013820 0.0 1014490
21:00+9ssw12168029 0.0 1015521
6 march, sat
sat600:00+9sw111681100 0.0 1015447
03:00+9sw81285100 0.0 1015306
06:00+8wsw458774 0.0 101494
09:00+8n237987 0.0 101536
12:00+8nnw8986100 0.0 1016486
15:00+6n101289100 0.0 1017583
18:00+4nnw111392100 0.1 1018791
21:00+5nnw101161100 0.3 10211353
7 march, sun
sun700:00+4nnw101158100 0.0 10241527
03:00+3n9106381 0.0 10261288
06:00+2n78510 0.0 10271340
09:00+1nw55510 0.0 10281026
12:00+2nw35370 0.0 10281521
15:00+4wsw46390 0.0 10261660
18:00+4wsw875314 0.0 10241262
21:00+4wsw665916 0.0 10241224